Temperature
0 1 1 2 2 3 2 2 2 3 4 5 5 5 5 6 6 7 7 8 9 11 12 13 14 15 15 15 15 15 15 14 14 14 14 13 13 13 12 12 12 12 11 11
-0 1 2 2 2 3 3 3 3 3 4 5 5 5 5 5 5 5 6 7 8 9 11 12 13 14 14 14 14 14 14 14 14 14 13 13 13 12 12 12 12 11 11 11
-1 1 1 1 2 2 3 3 3 3 4 4 4 4 4 4 4 4 5 6 7 8 10 11 12 13 13 14 14 13 14 14 14 13 13 12 12 12 12 12 11 11 11 11
-1 -1 -1 1 2 2 3 3 2 3 3 3 3 4 4 4 4 4 4 5 6 8 9 11 12 12 13 13 13 13 13 13 13 12 12 12 12 12 12 11 11 11 11 10
-1 -1 -1 1 2 2 2 2 2 2 3 3 3 4 4 4 3 3 4 5 6 7 9 10 11 12 12 12 12 12 12 13 12 12 12 12 11 11 11 11 11 11 10 10
-1 -1 -0 1 2 3 2 1 2 2 2 2 2 2 3 3 3 4 4 5 6 7 8 10 10 11 11 11 11 12 12 12 12 12 11 11 11 11 11 11 11 10 10 10
-2 -1 -0 1 2 3 1 1 2 2 2 2 2 2 2 3 3 3 4 5 6 7 8 9 10 10 10 11 11 11 11 11 11 11 11 11 11 10 10 10 10 10 10 9
-2 -2 -0 2 2 1 1 2 2 2 2 2 2 3 3 3 3 3 4 5 5 6 7 8 9 10 10 10 10 10 10 11 11 10 10 10 10 10 10 10 9 9 9 9
-2 -0 1 2 2 3 3 2 2 2 3 3 2 2 3 3 3 3 3 4 5 6 7 7 8 9 9 10 10 10 10 10 10 10 9 9 9 9 9 9 9 9 9 8
-1 -0 1 2 2 3 3 3 3 3 3 3 2 3 3 3 3 3 3 4 4 5 6 7 7 8 9 9 9 10 9 9 9 9 9 9 9 9 9 9 8 8 8 8
-2 -1 0 1 3 3 3 3 3 3 2 2 2 2 2 3 3 3 3 4 4 5 5 6 7 8 8 9 9 9 9 9 9 9 8 8 8 8 8 8 9 9 8 8
-1 -0 -0 0 2 2 2 2 2 2 2 2 2 2 2 2 3 3 3 3 4 4 5 6 6 7 7 8 8 9 8 8 8 8 8 8 8 7 7 8 8 8 8 8
0 1 1 1 1 1 1 2 2 2 2 2 2 2 2 2 2 2 3 3 4 4 5 5 6 7 7 7 8 8 8 8 8 8 8 8 8 7 7 6 6 6 7 7
0 0 -0 0 0 1 1 1 1 1 2 2 2 2 2 2 2 2 3 3 3 4 4 5 6 7 7 7 7 8 8 8 8 8 8 8 7 7 7 6 6 6 5 6
-0 -0 -1 -0 -0 0 0 0 1 1 1 1 1 1 2 2 2 2 2 3 3 3 4 5 6 6 6 7 7 7 7 7 7 7 7 7 7 7 6 6 6 5 5 4
-1 -1 -1 -1 -1 -1 -0 -0 -0 -0 0 0 1 1 1 1 2 2 2 2 3 3 4 4 5 6 6 6 6 6 7 7 7 7 7 7 6 6 6 6 6 5 5 5
-2 -2 -2 -2 -2 -1 -1 -1 -1 -1 -0 -0 0 1 1 1 1 2 2 2 3 3 3 4 5 5 5 6 6 6 6 6 6 6 6 6 6 6 6 6 5 5 5 4
-2 -2 -2 -2 -2 -2 -2 -1 -1 -1 -1 -0 -0 0 1 1 1 1 2 2 2 3 3 4 4 5 5 5 5 6 6 6 6 6 6 6 6 6 5 5 5 5 4 3
-2 -2 -2 -2 -2 -2 -2 -2 -2 -1 -1 -1 -0 0 1 1 1 1 1 2 2 2 3 3 4 4 4 4 5 5 5 5 5 5 5 5 5 5 5 5 4 4 4 3
-3 -3 -3 -3 -3 -3 -3 -3 -2 -2 -1 -1 -1 -0 0 0 0 1 1 1 2 2 3 3 3 4 4 4 4 5 5 5 5 5 5 5 5 4 4 4 4 3 3 3
-4 -4 -4 -4 -4 -3 -3 -3 -3 -2 -2 -1 -1 -1 -0 -0 0 0 1 1 2 2 2 3 3 3 3 4 4 4 4 4 5 5 5 4 4 4 4 4 3 3 3 2
-5 -5 -5 -5 -5 -4 -4 -4 -3 -3 -2 -2 -1 -1 -1 -1 -0 -0 0 1 1 1 2 2 3 3 3 3 4 4 4 4 4 4 4 4 4 4 3 3 3 3 2 2
-5 -5 -5 -5 -5 -5 -4 -4 -3 -3 -3 -2 -2 -2 -1 -1 -1 -1 -0 0 1 1 1 2 2 2 2 3 3 3 3 4 4 4 4 4 4 4 3 3 3 2 2 1
-6 -6 -6 -6 -6 -5 -5 -4 -4 -3 -3 -3 -2 -2 -2 -2 -1 -1 -1 -0 0 1 1 1 2 2 2 2 2 3 3 3 3 3 3 3 3 3 3 3 2 2 1 1
-7 -7 -6 -6 -6 -6 -5 -5 -4 -4 -4 -3 -3 -3 -3 -2 -2 -2 -1 -1 -0 -0 0 1 1 1 2 2 2 2 3 3 3 3 3 3 3 3 2 2 2 1 1 0
-7 -7 -7 -7 -6 -6 -6 -5 -5 -5 -5 -4 -4 -4 -3 -3 -3 -2 -2 -1 -1 -1 -0 0 0 1 1 1 2 2 2 2 2 2 2 2 2 2 2 1 1 0 0 -0
-8 -7 -7 -7 -6 -6 -6 -6 -6 -5 -5 -5 -5 -4 -4 -4 -3 -3 -2 -2 -2 -1 -1 -0 0 0 1 1 1 1 1 1 1 2 2 2 2 1 1 1 0 -0 -1 -1
Wind_Speed
9 11 9 11 13 10 8 7 7 10 12 14 13 12 12 12 12 12 11 10 7 4 4 5 7 9 11 13 13 14 14 16 17 16 14 14 15 15 15 15 15 14 13 13
7 8 10 12 12 12 11 9 9 10 12 10 11 9 10 11 12 13 13 12 9 7 4 4 5 7 9 10 11 13 14 14 14 14 14 14 14 14 14 14 14 13 14 13
5 7 7 7 7 7 5 4 4 7 8 9 10 11 9 9 11 13 14 14 12 8 6 4 5 6 9 9 10 12 12 12 13 15 15 14 13 13 14 14 13 13 13 13
4 3 5 6 4 5 6 5 5 6 7 8 10 10 5 6 10 13 15 14 12 10 7 4 3 4 6 8 10 11 11 12 13 14 14 13 14 14 13 12 13 12 12 13
3 4 7 7 5 3 4 5 5 6 9 10 10 7 5 8 10 12 13 13 11 9 6 3 2 3 6 8 10 11 12 12 13 14 14 14 14 13 11 12 11 11 11 12
3 4 5 5 5 5 2 4 5 6 9 10 9 6 7 12 13 13 14 12 10 8 5 1 1 4 7 8 10 11 11 12 12 13 14 14 14 12 10 11 11 11 10 10
6 6 7 6 7 3 0 5 7 6 6 6 5 6 10 12 12 12 13 12 10 7 5 2 1 4 6 7 8 8 9 11 11 12 12 13 11 11 12 12 12 11 11 9
5 6 8 4 1 1 5 5 6 5 5 6 8 9 10 11 12 13 13 12 9 7 6 4 0 4 6 6 6 8 10 11 11 11 11 11 13 12 13 13 13 12 11 9
8 8 6 4 5 6 5 5 6 5 7 8 9 10 10 10 11 11 11 11 9 7 6 4 2 2 6 6 8 10 11 11 12 12 11 12 14 14 13 12 11 11 10 10
6 9 8 8 7 7 6 8 8 8 8 8 9 10 11 10 10 10 9 9 8 7 5 5 3 0 4 7 9 11 11 12 12 12 11 11 10 11 12 12 12 11 11 11
9 9 8 8 8 8 8 8 9 9 8 8 9 10 10 10 10 9 9 8 7 6 5 4 3 1 4 8 10 11 11 11 11 11 11 10 9 8 10 9 12 14 12 12
11 9 7 9 8 8 10 10 10 10 10 9 8 9 9 9 9 8 9 8 7 6 5 4 3 1 4 8 10 11 11 11 10 10 10 10 11 9 11 10 14 15 15 14
13 11 11 12 11 10 10 10 11 11 11 11 9 9 9 9 8 7 8 8 7 7 5 4 3 2 5 8 9 10 11 11 10 10 11 11 11 12 11 12 15 16 18 19
10 9 10 10 11 11 11 11 10 10 10 9 9 8 8 8 8 8 8 7 7 6 5 3 2 2 5 8 9 9 10 11 11 10 11 11 11 11 12 13 12 9 13 19
10 9 10 10 10 10 9 9 9 10 9 9 8 8 8 8 8 9 8 7 6 5 4 3 2 3 5 8 10 10 10 9 10 10 10 11 11 12 12 13 13 12 11 13
9 9 8 8 10 10 9 8 9 10 10 9 9 8 8 8 8 8 7 6 5 5 4 3 3 3 5 9 10 9 9 13 13 11 12 12 12 12 12 13 13 12 12 12
7 8 7 7 9 9 9 9 9 9 9 9 9 9 8 7 7 8 7 5 4 5 4 4 4 4 6 9 10 9 10 12 15 13 12 12 12 12 12 12 12 11 10 12
7 8 7 8 8 9 9 9 9 9 9 9 9 8 7 6 7 7 7 4 2 2 3 3 4 5 7 8 9 10 10 10 11 12 12 12 12 11 12 12 13 13 11 12
5 6 7 8 8 8 9 9 9 9 9 8 7 7 7 7 6 6 5 3 3 3 3 3 6 7 8 9 11 10 11 12 12 12 12 16 14 12 12 12 12 12 12 11
7 7 8 8 8 8 8 8 8 8 8 7 6 6 6 6 5 4 4 3 4 3 3 5 6 7 8 10 12 11 12 13 14 13 13 13 13 13 12 12 12 12 11 10
8 8 9 9 9 9 8 8 8 8 8 7 6 6 6 5 4 3 3 3 3 3 4 7 7 7 7 10 12 11 12 13 13 13 13 13 13 13 13 12 12 11 11 10
9 9 10 9 9 10 9 8 7 8 7 6 5 5 4 4 4 3 3 4 3 4 4 5 6 9 12 13 10 12 12 13 12 12 13 13 13 13 13 13 12 11 11 10
9 10 10 10 10 10 9 8 7 6 6 6 5 5 4 4 3 3 3 2 2 5 4 5 10 15 16 11 11 12 13 13 12 12 12 12 12 13 13 13 12 11 11 10
10 10 11 10 8 8 8 8 6 5 4 4 4 4 3 2 2 1 2 3 5 6 5 9 16 17 15 10 11 11 12 12 12 12 12 12 12 12 12 12 12 11 11 11
9 9 9 9 8 7 7 6 4 3 3 2 2 2 2 2 2 2 2 3 6 7 6 11 16 16 12 10 11 11 11 11 13 13 13 12 12 12 12 12 11 11 11 10
8 8 8 7 7 6 5 4 3 3 2 1 1 0 0 1 2 3 3 5 7 8 7 7 9 12 10 11 11 12 12 13 13 12 12 12 13 12 12 12 13 11 10 10
8 7 6 5 5 5 4 4 3 3 2 2 1 1 2 2 3 4 5 6 6 7 7 8 8 9 10 11 11 11 11 11 11 12 12 11 11 11 12 13 11 10 10 10
Wind_Direction
254 266 271 277 285 281 261 251 251 273 282 296 313 317 323 332 338 336 336 330 318 289 252 220 201 194 191 189 186 184 185 188 190 189 187 184 183 183 183 183 185 184 182 182
272 268 280 282 282 271 266 267 259 273 281 293 305 322 333 341 345 342 333 326 316 308 285 235 210 197 186 184 182 180 183 186 181 178 178 179 179 178 177 178 177 175 177 178
275 298 310 284 275 268 263 263 270 269 283 319 328 328 325 333 338 333 330 325 318 309 292 253 221 198 186 181 174 176 178 175 172 174 175 176 172 171 172 173 171 172 174 175
273 323 262 255 277 279 274 275 303 297 314 325 316 309 307 338 335 330 328 324 319 313 301 278 232 199 178 169 169 170 170 170 169 168 170 168 167 170 169 167 168 170 171 170
233 251 273 286 292 283 266 280 308 311 315 319 320 315 303 333 331 319 318 317 311 306 297 274 211 177 159 164 164 164 168 169 168 165 163 163 166 166 162 159 159 163 164 161
223 236 252 262 289 290 264 286 317 316 314 321 337 329 312 325 322 318 321 320 320 321 325 306 199 156 154 162 164 169 169 166 163 161 161 162 160 155 151 150 150 149 148 153
224 240 263 263 292 337 278 276 305 307 306 317 310 280 294 310 315 316 322 323 328 330 338 313 199 145 152 158 167 163 153 152 153 154 153 151 146 144 144 141 140 140 137 138
207 228 250 263 307 205 245 273 288 290 292 300 298 297 303 311 319 325 327 327 331 335 338 330 271 153 150 154 145 138 142 144 143 143 143 143 142 142 142 141 139 137 132 129
207 227 249 249 239 252 246 259 271 280 289 294 301 303 306 308 315 320 323 324 327 330 334 336 325 164 157 153 141 138 139 141 140 138 141 145 146 146 145 144 143 143 141 138
247 258 265 270 271 275 261 257 268 274 281 285 291 298 304 308 311 314 318 322 325 326 330 331 324 262 157 147 142 139 141 142 141 140 140 142 144 148 150 151 148 146 146 143
253 266 280 269 261 268 275 275 280 284 280 277 284 292 296 302 305 309 311 315 319 314 306 308 313 251 150 145 141 139 141 141 139 140 142 140 135 139 147 154 157 155 155 152
249 247 248 265 269 275 280 279 278 280 282 278 271 278 288 293 294 299 306 309 309 305 298 304 308 214 154 148 144 142 145 144 143 142 140 136 129 108 91 118 130 135 142 142
247 258 257 265 271 273 272 276 276 274 272 277 276 274 278 285 288 292 299 303 302 299 290 294 293 204 159 151 148 148 150 147 145 145 142 140 138 133 121 100 102 117 128 131
252 260 268 268 270 276 275 276 277 275 272 269 273 276 275 278 284 289 290 292 294 293 284 280 273 205 159 148 144 143 144 144 145 145 143 141 139 136 134 132 127 115 118 126
258 252 256 271 278 281 282 284 284 282 281 276 271 271 272 275 281 285 285 286 289 283 269 255 241 197 153 146 144 144 144 144 140 137 135 135 132 130 129 127 127 126 123 125
272 273 268 272 278 284 287 286 281 282 284 280 277 273 271 271 274 280 281 276 268 265 251 234 228 190 156 147 144 143 141 140 139 138 135 133 133 133 133 132 132 134 136 137
271 280 282 287 285 286 283 278 275 278 282 281 278 277 276 278 280 282 283 281 260 254 241 217 209 177 157 151 148 144 140 139 135 134 135 137 137 137 137 137 137 136 136 142
253 261 268 274 281 287 291 288 283 281 279 280 282 279 272 267 270 275 281 287 276 274 248 204 177 158 152 150 148 144 142 142 141 138 136 137 135 134 134 134 135 133 133 135
293 289 291 289 287 286 288 290 288 284 282 282 279 271 266 264 265 270 277 265 238 243 238 183 162 154 151 151 145 140 140 139 135 134 134 136 132 132 134 135 135 135 136 136
316 310 304 300 297 292 290 292 293 291 288 286 279 271 270 271 269 267 259 252 245 230 194 169 157 152 148 146 140 140 141 140 138 137 136 138 137 136 135 135 135 136 136 136
310 307 305 303 301 296 290 290 291 289 289 287 273 265 265 270 267 247 228 251 259 204 176 161 153 149 146 145 138 140 140 140 140 140 140 139 138 138 137 138 137 138 137 136
305 301 299 297 296 295 294 292 286 285 285 283 274 263 260 265 263 250 234 234 222 176 161 156 150 150 150 143 139 139 139 138 138 139 140 140 141 141 141 140 139 139 138 137
298 297 296 294 292 292 293 290 285 281 276 272 267 255 247 246 235 221 242 220 180 161 155 155 152 149 145 139 137 138 139 139 139 140 140 140 142 142 141 140 139 139 139 138
293 292 291 290 289 287 287 289 288 282 275 276 268 249 231 234 262 250 211 169 159 150 152 153 150 147 141 136 135 136 137 137 137 136 135 135 136 137 138 138 137 137 138 137
288 287 285 285 284 279 277 280 282 276 274 280 281 266 243 217 208 188 152 148 145 138 136 145 144 139 135 131 133 134 134 135 135 135 135 137 137 136 136 136 137 138 138 138
288 287 283 277 272 270 270 269 268 263 251 252 272 261 177 147 142 137 130 127 127 127 127 129 131 129 127 129 129 129 129 131 131 130 133 134 135 135 135 134 133 136 137 137
291 288 287 285 277 267 263 259 251 244 230 214 211 177 137 130 126 122 120 118 117 116 116 118 120 121 122 124 124 124 124 126 127 128 130 131 134 134 135 134 135 135 136 137
Height
1411 1406 1404 1400 1395 1391 1390 1388 1388 1376 1370 1362 1358 1355 1350 1346 1341 1337 1334 1331 1329 1328 1329 1331 1334 1339 1344 1349 1356 1362 1368 1374 1380 1387 1394 1401 1407 1414 1420 1426 1432 1437 1443 1447
1408 1401 1398 1394 1389 1385 1382 1379 1377 1373 1368 1363 1359 1354 1350 1347 1343 1340 1336 1332 1329 1327 1326 1328 1330 1334 1339 1344 1350 1356 1362 1368 1375 1382 1389 1395 1402 1409 1415 1421 1427 1433 1438 1443
1409 1401 1396 1393 1384 1381 1378 1376 1374 1372 1367 1362 1357 1354 1352 1349 1346 1342 1338 1334 1329 1326 1325 1326 1328 1331 1335 1340 1346 1352 1358 1364 1370 1377 1384 1390 1397 1404 1410 1416 1422 1428 1433 1438
1410 1407 1408 1390 1380 1378 1376 1374 1372 1368 1365 1362 1359 1353 1350 1349 1346 1342 1338 1333 1328 1325 1324 1324 1326 1329 1333 1337 1343 1348 1354 1359 1366 1372 1379 1386 1392 1399 1405 1411 1417 1423 1428 1434
1409 1409 1398 1385 1378 1376 1375 1373 1371 1367 1363 1360 1356 1350 1347 1346 1344 1342 1337 1332 1328 1325 1323 1323 1324 1327 1330 1334 1339 1344 1349 1355 1361 1368 1374 1381 1388 1394 1401 1407 1413 1419 1424 1430
1406 1404 1395 1383 1375 1372 1373 1373 1369 1366 1363 1359 1356 1354 1349 1346 1343 1339 1334 1330 1326 1323 1321 1321 1323 1325 1328 1331 1336 1340 1346 1352 1358 1364 1371 1377 1383 1390 1397 1404 1410 1416 1421 1427
1403 1400 1389 1378 1373 1371 1378 1376 1368 1365 1362 1360 1357 1356 1351 1345 1341 1337 1333 1328 1325 1322 1321 1321 1322 1324 1326 1329 1333 1338 1344 1350 1356 1362 1368 1374 1381 1387 1394 1400 1407 1413 1418 1424
1400 1399 1389 1373 1372 1374 1373 1367 1365 1363 1360 1358 1355 1351 1348 1343 1339 1335 1331 1328 1325 1322 1320 1321 1322 1323 1325 1328 1333 1337 1343 1348 1354 1360 1366 1372 1378 1385 1391 1397 1403 1409 1415 1420
1389 1383 1373 1370 1370 1368 1366 1365 1362 1360 1358 1355 1352 1349 1345 1341 1338 1334 1331 1327 1324 1322 1321 1321 1322 1323 1325 1328 1332 1337 1342 1347 1353 1359 1364 1370 1376 1382 1388 1394 1400 1406 1412 1417
1380 1372 1369 1367 1366 1365 1364 1362 1359 1357 1355 1352 1349 1346 1343 1339 1336 1333 1330 1327 1324 1322 1321 1320 1321 1323 1325 1328 1331 1336 1340 1346 1351 1356 1362 1368 1374 1380 1385 1390 1396 1402 1408 1413
1374 1368 1365 1362 1361 1361 1359 1357 1356 1354 1352 1349 1346 1343 1341 1337 1334 1331 1328 1325 1323 1322 1321 1320 1321 1322 1325 1327 1331 1335 1340 1345 1350 1355 1361 1366 1372 1378 1384 1390 1395 1400 1405 1411
1367 1363 1362 1358 1357 1356 1355 1353 1351 1349 1346 1345 1343 1340 1338 1335 1332 1329 1326 1323 1322 1321 1320 1319 1319 1320 1323 1327 1331 1334 1338 1343 1348 1353 1359 1364 1370 1376 1384 1390 1396 1401 1407 1411
1358 1356 1355 1353 1352 1351 1349 1347 1346 1343 1341 1339 1338 1336 1334 1331 1329 1326 1324 1322 1320 1319 1318 1318 1318 1320 1322 1326 1330 1333 1337 1341 1346 1352 1357 1362 1368 1374 1379 1388 1394 1400 1406 1411
1352 1351 1349 1347 1346 1344 1343 1341 1340 1338 1336 1334 1333 1331 1329 1327 1324 1322 1320 1319 1318 1317 1316 1316 1316 1319 1321 1325 1329 1333 1337 1341 1345 1350 1356 1361 1367 1373 1378 1384 1390 1397 1404 1409
1346 1345 1344 1342 1340 1338 1337 1335 1333 1331 1330 1329 1328 1326 1324 1322 1320 1318 1317 1316 1315 1314 1314 1314 1315 1318 1320 1323 1327 1331 1336 1340 1344 1349 1355 1360 1367 1373 1379 1385 1390 1396 1401 1408
1340 1339 1338 1336 1335 1333 1331 1330 1328 1326 1325 1323 1322 1321 1319 1318 1316 1315 1314 1313 1312 1311 1311 1312 1314 1316 1319 1322 1326 1330 1334 1339 1343 1348 1354 1360 1366 1372 1378 1384 1389 1395 1400 1405
1336 1334 1332 1331 1329 1328 1326 1324 1323 1321 1319 1318 1316 1315 1314 1313 1312 1311 1310 1309 1309 1308 1309 1310 1312 1315 1318 1321 1324 1328 1333 1338 1343 1348 1354 1359 1366 1372 1378 1383 1389 1394 1400 1405
1332 1330 1329 1328 1326 1323 1321 1319 1318 1316 1314 1313 1312 1311 1310 1309 1308 1307 1306 1305 1305 1305 1306 1308 1310 1313 1316 1319 1323 1327 1332 1336 1342 1348 1353 1359 1366 1372 1377 1383 1389 1394 1399 1405
1327 1326 1324 1323 1321 1319 1317 1315 1313 1311 1310 1309 1308 1307 1306 1305 1304 1304 1303 1302 1302 1303 1304 1306 1308 1311 1314 1318 1322 1326 1331 1336 1341 1347 1353 1359 1366 1372 1377 1383 1389 1394 1399 1404
1323 1322 1320 1318 1316 1315 1312 1310 1309 1307 1305 1304 1303 1302 1301 1301 1300 1300 1300 1299 1300 1301 1302 1304 1307 1310 1313 1317 1321 1325 1330 1335 1340 1346 1352 1359 1365 1371 1377 1383 1389 1394 1399 1403
1319 1317 1315 1313 1311 1309 1307 1306 1304 1302 1301 1300 1299 1298 1297 1297 1297 1296 1296 1296 1297 1299 1301 1303 1305 1308 1312 1316 1320 1324 1329 1334 1340 1345 1351 1358 1364 1370 1376 1382 1388 1393 1398 1403
1315 1312 1310 1308 1305 1303 1301 1300 1299 1297 1296 1295 1295 1294 1293 1293 1293 1293 1293 1294 1295 1297 1299 1301 1304 1307 1311 1315 1319 1324 1329 1334 1339 1345 1351 1357 1363 1369 1375 1381 1387 1392 1398 1403
1310 1307 1305 1302 1300 1297 1295 1294 1293 1292 1291 1291 1290 1290 1290 1290 1290 1290 1290 1292 1293 1295 1298 1300 1303 1307 1310 1315 1319 1324 1329 1334 1340 1345 1351 1357 1363 1369 1375 1381 1386 1392 1397 1402
1305 1302 1299 1297 1294 1292 1290 1289 1288 1288 1287 1286 1286 1286 1287 1286 1286 1287 1288 1290 1292 1294 1296 1299 1302 1306 1310 1314 1318 1323 1329 1334 1340 1346 1352 1358 1364 1370 1375 1381 1386 1392 1397 1401
1299 1296 1293 1291 1289 1287 1285 1284 1284 1283 1283 1282 1282 1283 1283 1284 1284 1285 1287 1288 1290 1292 1295 1298 1302 1305 1309 1314 1318 1324 1329 1334 1340 1346 1352 1358 1364 1370 1375 1381 1386 1391 1396 1401
1293 1290 1288 1286 1284 1283 1281 1281 1280 1279 1279 1279 1279 1280 1281 1281 1282 1284 1285 1287 1289 1291 1294 1298 1302 1306 1310 1314 1319 1325 1330 1335 1341 1347 1353 1359 1364 1370 1375 1381 1386 1391 1396 1401
1287 1285 1282 1280 1279 1278 1277 1277 1276 1276 1276 1276 1276 1277 1278 1280 1281 1282 1284 1286 1289 1292 1295 1299 1303 1307 1311 1316 1320 1326 1331 1337 1342 1348 1354 1360 1365 1370 1376 1381 1386 1391 1396 1400